Location: Newark
(5.5500°N, 0.2500°W)
Time: 16:42:40
(UTC+00:00)

Hubble Space Telescope - Pass Details

Date: 27 September 2019
Orbit: 536 x 540 km, 28.5° (Epoch: 13 October)

Event Time Altitude Azimuth Distance (km) Brightness Sun altitude
Exits shadow 03:28:41 12° 74° (ENE) 1,650 3.9 -35.9°
Drops below altitude 10° 03:29:06 10° 78° (ENE) 1,772 4.2 -35.7°
Sets 03:31:44 0° 94° (E) 2,663 5.3 -35.1°
